Flag for Estonia Weather past 2 weeks in Kohtla-Järve, Estonia

Now
53 °F

Clear.


Feels Like: 52 °F
Forecast: 59 / 66 °F
Wind: 5 mph from Southwest

Location: Johvi

Current Time: Aug 29, 2015 at 7:02:22 AM

Latest Report: Aug 29, 2015 at 4:00 AM


Visibility: 9 mi

Pressure: 29.81 "Hg

Humidity: 97%

Dew point: 52 °F

Location of Kohtla-JärveLocation

Historic Weather in Kohtla-Järve — Graph

°F

Kohtla-Järve temperature yesterday

Maximum temperature yesterday: 64 °F (at 2:00 AM)
Minimum temperature yesterday: 57 °F (at 9:00 PM)
Average temperature yesterday: 62 °F

Past Weeks' High & Low Weather Summary

 TemperatureHumidityPressure
High77 °F (Aug 23, 3:00 PM)100% (Aug 19, 4:00 AM)30.47 "Hg (Aug 19, 4:00 AM)
Low35 °F (Aug 17, 5:00 AM)34% (Aug 21, 2:00 PM)29.66 "Hg (Aug 28, 4:00 PM)
Average60 °F73%30.20 "Hg
* Reported Aug 14 4:00 AM — Aug 29 4:00 AM, Kohtla-Järve, Weather by CustomWeather, © 2015

Note: Actual official high and low records may vary slightly from our data, if they occured in-between our weather recording intervals... More about our weather records

Advertising

Kohtla-Järve weather history for previous 24 hours

 ConditionsComfort  
Time TempWeatherWind HumidityBarometerVisibility
4:00 AM
Sat, Aug 29
53 °FClear.5 mph97%29.81 "Hg9 mi
3:00 AM53 °FClear.3 mph95%29.80 "Hg7 mi
2:00 AM55 °FClear.5 mph95%29.80 "Hg9 mi
1:00 AM56 °FClear.5 mph94%29.79 "Hg11 mi
10:00 PM
Fri, Aug 28
58 °FClear.6 mph94%29.76 "Hg16 mi
9:00 PM57 °FClear.3 mph95%29.74 "Hg22 mi
8:00 PM60 °FOvercast.5 mph92%29.72 "Hg28 mi
7:00 PM61 °FOvercast.3 mph91%29.70 "Hg25 mi
6:00 PM62 °FRain showers. Low clouds.6 mph94%29.68 "Hg8 mi
5:00 PM62 °FRain showers. Low clouds.7 mph95%29.67 "Hg1 mi
4:00 PM63 °FLight rain. Low clouds.7 mph93%29.66 "Hg7 mi
3:00 PM62 °FLight rain. Overcast.7 mph93%29.68 "Hg6 mi
2:00 PM63 °FLight rain. Low clouds.5 mph94%29.70 "Hg7 mi
1:00 PM63 °FLight rain. Overcast.5 mph93%29.72 "Hg7 mi
12:00 PM63 °FLight rain. Overcast.5 mph95%29.76 "Hg6 mi
11:00 AM62 °FRain. Low clouds.7 mph95%29.79 "Hg5 mi
10:00 AM63 °FLight rain. Overcast.5 mph92%29.80 "Hg9 mi
9:00 AM62 °FLight rain. Overcast.3 mph94%29.81 "Hg7 mi
8:00 AM62 °FRain showers. Overcast.2 mph94%29.83 "Hg10 mi
Weather by CustomWeather, © 2015

See weather overviewHow to use our weather pages